Back to catalog

OPS 4682 DEB

AlivePO
NORAD 55118·DEBRIS·🇺🇸 United States

Launched Apr 3, 1965 from Vandenberg Space Force Base

Loading…

Next Passes (next 24 hours)

TLE

AgingSource: Space-Track

Epoch: Sep 5, 2026, 02:27 UTC

1 55118U 65027HH  26248.10221157  .00000456  00000-0  15110-2 0  9996
2 55118  90.2411   5.5184 0033950 167.8897 316.7858 12.98801371602688

Track OPS 4682 DEB in real time with AllMySat

Download on the App Store